CGXAR CYSW-CYXC

Flight info

Callsign CGXAR
Flight time 1h 6m
Altitude 14000
Route CYSW ULBIK LEVUS CYXC MISS CYCG
Aircraft PA34/L-SDFGRY/LB1D1

Departure

Time 2026-05-07 04:03
Airport Sparwood Elk Valley Airport (CYSW)

Arrival

Time 2026-05-07 05:09
Airport Cranbrook/Canadian Rockies International Airport (CYXC)
Time Latitude Longitude Altitude Speed Heading
2026-05-07 03:45 49.83484 -114.88064 3893 ft 0 kts 145°
2026-05-07 03:58 49.83482 -114.88061 3888 ft 3 kts 144°
2026-05-07 03:58 49.83450 -114.88000 3892 ft 8 kts 95°
2026-05-07 03:59 49.83446 -114.87898 3886 ft 12 kts 74°
2026-05-07 03:59 49.83506 -114.87858 3884 ft 13 kts 11°
2026-05-07 03:59 49.83594 -114.87837 3885 ft 13 kts
2026-05-07 03:59 49.83683 -114.87815 3886 ft 13 kts
2026-05-07 04:00 49.83778 -114.87789 3885 ft 15 kts
2026-05-07 04:00 49.83886 -114.87765 3884 ft 16 kts 15°
2026-05-07 04:00 49.83990 -114.87736 3885 ft 8 kts 32°
2026-05-07 04:00 49.83994 -114.87729 3884 ft 0 kts 107°
2026-05-07 04:01 49.83989 -114.87727 3884 ft 0 kts 191°
2026-05-07 04:02 49.83885 -114.87755 3885 ft 42 kts 190°
2026-05-07 04:02 49.83430 -114.87869 3902 ft 84 kts 190°
2026-05-07 04:02 49.82808 -114.88000 4069 ft 96 kts 192°
2026-05-07 04:02 49.82134 -114.88180 4297 ft 106 kts 189°
2026-05-07 04:03 49.81361 -114.88302 4476 ft 117 kts 189°
2026-05-07 04:03 49.80545 -114.88426 4760 ft 118 kts 188°
2026-05-07 04:03 49.79732 -114.88587 5055 ft 117 kts 199°
2026-05-07 04:03 49.79245 -114.89475 5299 ft 115 kts 265°
2026-05-07 04:04 49.79617 -114.90512 5623 ft 119 kts 329°
2026-05-07 04:04 49.80391 -114.90967 5897 ft 120 kts 336°
2026-05-07 04:04 49.81171 -114.91448 6164 ft 122 kts 336°
2026-05-07 04:04 49.81998 -114.91574 6466 ft 124 kts 15°
2026-05-07 04:05 49.82817 -114.91141 6723 ft 127 kts 27°
2026-05-07 04:05 49.83256 -114.90017 7003 ft 129 kts 81°
2026-05-07 04:05 49.83344 -114.88617 7251 ft 132 kts 81°
2026-05-07 04:05 49.83665 -114.87320 7526 ft 129 kts 40°
2026-05-07 04:06 49.84383 -114.86517 7819 ft 128 kts 29°
2026-05-07 04:06 49.85119 -114.85744 8147 ft 127 kts 28°
2026-05-07 04:06 49.85864 -114.84992 8473 ft 127 kts 22°
2026-05-07 04:06 49.86684 -114.84856 8830 ft 116 kts 341°
2026-05-07 04:07 49.87352 -114.85483 9159 ft 113 kts 308°
2026-05-07 04:07 49.87649 -114.86590 9495 ft 114 kts 276°
2026-05-07 04:07 49.87463 -114.87773 9828 ft 119 kts 243°
2026-05-07 04:07 49.86796 -114.88591 10121 ft 131 kts 205°
2026-05-07 04:08 49.85860 -114.88567 10421 ft 140 kts 173°
2026-05-07 04:08 49.84905 -114.88256 10728 ft 141 kts 173°
2026-05-07 04:08 49.83939 -114.88007 11052 ft 139 kts 188°
2026-05-07 04:08 49.83140 -114.88589 11352 ft 126 kts 233°
2026-05-07 04:09 49.82786 -114.89745 11679 ft 117 kts 269°
2026-05-07 04:09 49.82956 -114.90942 11985 ft 115 kts 301°
2026-05-07 04:09 49.83555 -114.91741 12292 ft 118 kts 334°
2026-05-07 04:09 49.84386 -114.91805 12636 ft 127 kts
2026-05-07 04:10 49.85175 -114.91095 12984 ft 133 kts 26°
2026-05-07 04:10 49.85947 -114.90303 13311 ft 134 kts 26°
2026-05-07 04:10 49.86723 -114.89506 13656 ft 134 kts 26°
2026-05-07 04:10 49.87500 -114.88708 13962 ft 135 kts 26°
2026-05-07 04:11 49.88266 -114.87684 13997 ft 163 kts 53°
2026-05-07 04:11 49.88684 -114.85917 14008 ft 181 kts 55°
2026-05-07 04:11 49.89637 -114.84705 14008 ft 180 kts 13°
2026-05-07 04:11 49.90860 -114.84788 14009 ft 180 kts 334°
2026-05-07 04:12 49.91829 -114.85985 14012 ft 183 kts 314°
2026-05-07 04:12 49.92803 -114.87293 14009 ft 188 kts 322°
2026-05-07 04:12 49.93940 -114.88345 14009 ft 192 kts 332°
2026-05-07 04:12 49.95199 -114.89077 14008 ft 195 kts 341°
2026-05-07 04:13 49.96488 -114.89737 14009 ft 195 kts 332°
2026-05-07 04:13 49.97606 -114.90906 14007 ft 194 kts 317°
2026-05-07 04:13 49.98471 -114.92508 14007 ft 194 kts 302°
2026-05-07 04:13 49.99012 -114.94419 14006 ft 194 kts 287°
2026-05-07 04:14 49.99187 -114.96496 14004 ft 195 kts 272°
2026-05-07 04:14 49.99058 -114.98606 14008 ft 197 kts 266°
2026-05-07 04:14 49.98914 -115.00738 14005 ft 199 kts 267°
2026-05-07 04:14 49.98776 -115.02881 14001 ft 199 kts 267°
2026-05-07 04:15 49.98638 -115.04986 13998 ft 199 kts 267°
2026-05-07 04:15 49.98497 -115.07126 14007 ft 200 kts 267°
2026-05-07 04:15 49.98551 -115.09257 13993 ft 197 kts 290°
2026-05-07 04:15 49.99368 -115.10938 13998 ft 198 kts 321°
2026-05-07 04:16 50.00578 -115.11959 13996 ft 199 kts 334°
2026-05-07 04:16 50.01839 -115.12851 13993 ft 198 kts 332°
2026-05-07 04:16 50.03058 -115.13818 13994 ft 196 kts 330°
2026-05-07 04:16 50.04262 -115.14818 13990 ft 195 kts 329°
2026-05-07 04:17 50.05444 -115.15795 13991 ft 194 kts 330°
2026-05-07 04:17 50.06638 -115.16776 13993 ft 193 kts 330°
2026-05-07 04:17 50.07826 -115.17752 13995 ft 194 kts 330°
2026-05-07 04:17 50.09031 -115.18740 13993 ft 196 kts 330°
2026-05-07 04:18 50.10239 -115.19733 13998 ft 197 kts 329°
2026-05-07 04:18 50.11457 -115.20737 13989 ft 198 kts 330°
2026-05-07 04:18 50.12649 -115.21791 13994 ft 197 kts 323°
2026-05-07 04:18 50.13624 -115.23265 13963 ft 190 kts 308°
2026-05-07 04:19 50.14204 -115.24786 13835 ft 139 kts 295°
2026-05-07 04:19 50.14500 -115.26167 13745 ft 139 kts 286°
2026-05-07 04:19 50.14627 -115.27706 13653 ft 147 kts 275°
2026-05-07 04:19 50.14541 -115.29317 13550 ft 155 kts 264°
2026-05-07 04:20 50.14210 -115.30955 13447 ft 162 kts 251°
2026-05-07 04:20 50.13648 -115.32501 13339 ft 165 kts 243°
2026-05-07 04:20 50.13052 -115.34041 13221 ft 169 kts 244°
2026-05-07 04:21 50.11801 -115.37297 12904 ft 178 kts 244°
2026-05-07 04:21 50.11157 -115.38962 12752 ft 180 kts 245°
2026-05-07 04:21 50.10513 -115.40629 12694 ft 178 kts 244°
2026-05-07 04:21 50.09878 -115.42268 12690 ft 175 kts 244°
2026-05-07 04:22 50.09261 -115.43857 12678 ft 168 kts 244°
2026-05-07 04:22 50.08668 -115.45395 12685 ft 164 kts 244°
2026-05-07 04:22 50.08082 -115.46912 12685 ft 163 kts 244°
2026-05-07 04:22 50.07496 -115.48425 12663 ft 162 kts 244°
2026-05-07 04:23 50.06922 -115.49907 12589 ft 165 kts 244°
2026-05-07 04:23 50.06318 -115.51468 12439 ft 171 kts 244°
2026-05-07 04:23 50.05694 -115.53081 12284 ft 176 kts 243°
2026-05-07 04:23 50.05058 -115.54713 12135 ft 176 kts 243°
2026-05-07 04:24 50.04426 -115.56339 11971 ft 172 kts 243°
2026-05-07 04:24 50.03819 -115.57893 11824 ft 165 kts 243°
2026-05-07 04:24 50.03237 -115.59389 11675 ft 159 kts 244°
2026-05-07 04:24 50.02669 -115.60845 11523 ft 155 kts 243°
2026-05-07 04:25 50.02114 -115.62274 11377 ft 154 kts 243°
2026-05-07 04:25 50.01560 -115.63697 11226 ft 153 kts 243°
2026-05-07 04:25 50.01007 -115.65116 11051 ft 153 kts 243°
2026-05-07 04:25 50.00460 -115.66517 10876 ft 150 kts 244°
2026-05-07 04:26 49.99919 -115.67902 10703 ft 149 kts 243°
2026-05-07 04:26 49.99388 -115.69263 10534 ft 146 kts 243°
2026-05-07 04:26 49.98863 -115.70608 10362 ft 145 kts 243°
2026-05-07 04:26 49.98342 -115.71938 10173 ft 143 kts 243°
2026-05-07 04:27 49.97830 -115.73246 9982 ft 140 kts 243°
2026-05-07 04:27 49.97333 -115.74512 9785 ft 133 kts 243°
2026-05-07 04:27 49.96867 -115.75702 9578 ft 129 kts 243°
2026-05-07 04:27 49.96408 -115.76876 9367 ft 126 kts 243°
2026-05-07 04:28 49.95954 -115.78021 9160 ft 122 kts 239°
2026-05-07 04:28 49.95364 -115.78819 8928 ft 107 kts 213°
2026-05-07 04:28 49.94680 -115.79146 8710 ft 103 kts 191°
2026-05-07 04:28 49.93916 -115.79134 8351 ft 115 kts 181°
2026-05-07 04:29 49.93092 -115.79089 8000 ft 121 kts 181°
2026-05-07 04:29 49.92289 -115.79041 7789 ft 114 kts 181°
2026-05-07 04:29 49.91504 -115.78954 7545 ft 112 kts 180°
2026-05-07 04:29 49.90741 -115.78905 7365 ft 104 kts 181°
2026-05-07 04:30 49.89999 -115.78864 7381 ft 113 kts 181°
2026-05-07 04:30 49.89187 -115.78848 7389 ft 120 kts 182°
2026-05-07 04:30 49.88343 -115.78830 7391 ft 121 kts 181°
2026-05-07 04:30 49.87503 -115.78810 7391 ft 121 kts 181°
2026-05-07 04:31 49.86680 -115.78788 7386 ft 114 kts 184°
2026-05-07 04:31 49.85907 -115.78764 7377 ft 108 kts 182°
2026-05-07 04:31 49.85175 -115.78754 7375 ft 106 kts 184°
2026-05-07 04:31 49.84408 -115.78736 7327 ft 116 kts 182°
2026-05-07 04:32 49.83559 -115.78720 7191 ft 128 kts 182°
2026-05-07 04:32 49.82635 -115.78699 7007 ft 137 kts 182°
2026-05-07 04:32 49.81663 -115.78677 6829 ft 142 kts 182°
2026-05-07 04:32 49.80660 -115.78653 6646 ft 145 kts 182°
2026-05-07 04:33 49.79671 -115.78629 6464 ft 137 kts 182°
2026-05-07 04:33 49.78749 -115.78603 6297 ft 128 kts 182°
2026-05-07 04:33 49.77873 -115.78580 6131 ft 123 kts 182°
2026-05-07 04:33 49.77045 -115.78567 5970 ft 119 kts 182°
2026-05-07 04:34 49.76226 -115.78545 5817 ft 116 kts 182°
2026-05-07 04:34 49.75430 -115.78524 5666 ft 114 kts 182°
2026-05-07 04:34 49.74642 -115.78511 5518 ft 112 kts 181°
2026-05-07 04:34 49.73868 -115.78492 5373 ft 110 kts 181°
2026-05-07 04:35 49.73109 -115.78472 5231 ft 107 kts 182°
2026-05-07 04:35 49.72367 -115.78453 5087 ft 106 kts 181°
2026-05-07 04:35 49.71884 -115.78446 5001 ft 104 kts 180°
2026-05-07 04:35 49.71157 -115.78428 4867 ft 104 kts 180°
2026-05-07 04:36 49.70200 -115.78404 4679 ft 103 kts 180°
2026-05-07 04:36 49.69484 -115.78393 4537 ft 102 kts 180°
2026-05-07 04:36 49.69007 -115.78381 4441 ft 101 kts 180°
2026-05-07 04:36 49.68318 -115.78362 4303 ft 97 kts 181°
2026-05-07 04:37 49.67658 -115.78347 4174 ft 94 kts 181°
2026-05-07 04:37 49.67009 -115.78333 4052 ft 94 kts 181°
2026-05-07 04:37 49.66335 -115.78317 3922 ft 100 kts 182°
2026-05-07 04:37 49.65619 -115.78302 3769 ft 102 kts 183°
2026-05-07 04:38 49.64863 -115.78287 3758 ft 114 kts 185°
2026-05-07 04:38 49.64114 -115.78369 4087 ft 106 kts 184°
2026-05-07 04:38 49.63389 -115.78375 4457 ft 101 kts 179°
2026-05-07 04:38 49.62688 -115.78339 4782 ft 103 kts 179°
2026-05-07 04:39 49.61975 -115.78371 5082 ft 104 kts 186°
2026-05-07 04:39 49.61229 -115.78518 5346 ft 111 kts 188°
2026-05-07 04:39 49.60413 -115.78292 5477 ft 130 kts 148°
2026-05-07 04:39 49.60057 -115.77066 5689 ft 138 kts 75°
2026-05-07 04:40 49.60786 -115.76297 5794 ft 142 kts 347°
2026-05-07 04:40 49.61214 -115.77387 6066 ft 136 kts 248°
2026-05-07 04:40 49.60347 -115.77647 6134 ft 159 kts 139°
2026-05-07 04:40 49.60396 -115.76195 6392 ft 150 kts 29°
2026-05-07 04:41 49.61179 -115.76757 6430 ft 152 kts 273°
2026-05-07 04:41 49.60421 -115.77502 6650 ft 163 kts 154°
2026-05-07 04:41 49.59871 -115.76214 7252 ft 135 kts 91°
2026-05-07 04:41 49.60223 -115.75008 7594 ft 125 kts 30°
2026-05-07 04:42 49.61010 -115.74918 7899 ft 115 kts 335°
2026-05-07 04:42 49.61757 -115.75368 8189 ft 115 kts 325°
2026-05-07 04:42 49.62518 -115.75697 8536 ft 117 kts 353°
2026-05-07 04:42 49.63328 -115.75808 8852 ft 117 kts 350°
2026-05-07 04:43 49.64139 -115.75909 9192 ft 116 kts 351°
2026-05-07 04:43 49.64943 -115.76000 9541 ft 115 kts 350°
2026-05-07 04:43 49.65738 -115.76087 9855 ft 116 kts 350°
2026-05-07 04:43 49.66543 -115.76173 10166 ft 116 kts 350°
2026-05-07 04:44 49.67349 -115.76259 10475 ft 116 kts 350°
2026-05-07 04:44 49.68159 -115.76344 10775 ft 119 kts 349°
2026-05-07 04:44 49.69066 -115.76444 10798 ft 142 kts 351°
2026-05-07 04:44 49.70116 -115.76555 10806 ft 159 kts 351°
2026-05-07 04:45 49.71263 -115.76674 10805 ft 170 kts 352°
2026-05-07 04:45 49.72477 -115.76800 10801 ft 178 kts 352°
2026-05-07 04:45 49.73733 -115.76931 10801 ft 183 kts 352°
2026-05-07 04:45 49.75018 -115.77069 10801 ft 186 kts 352°
2026-05-07 04:46 49.76322 -115.77210 10796 ft 189 kts 352°
2026-05-07 04:46 49.77637 -115.77348 10793 ft 190 kts 352°
2026-05-07 04:46 49.78958 -115.77486 10793 ft 191 kts 352°
2026-05-07 04:46 49.80281 -115.77629 10789 ft 191 kts 352°
2026-05-07 04:47 49.81590 -115.77768 10787 ft 190 kts 352°
2026-05-07 04:47 49.82932 -115.77909 10788 ft 191 kts 352°
2026-05-07 04:47 49.84239 -115.78048 10789 ft 191 kts 352°
2026-05-07 04:47 49.85563 -115.78191 10787 ft 190 kts 352°
2026-05-07 04:48 49.86885 -115.78329 10785 ft 190 kts 352°
2026-05-07 04:48 49.88210 -115.78467 10784 ft 192 kts 353°
2026-05-07 04:48 49.89547 -115.78607 10783 ft 193 kts 353°
2026-05-07 04:48 49.90893 -115.78748 10782 ft 194 kts 353°
2026-05-07 04:49 49.92242 -115.78889 10781 ft 195 kts 353°
2026-05-07 04:49 49.93614 -115.79033 10635 ft 202 kts 353°
2026-05-07 04:49 49.95035 -115.79183 10445 ft 207 kts 353°
2026-05-07 04:49 49.96450 -115.79585 10247 ft 208 kts 334°
2026-05-07 04:50 49.97559 -115.80987 10053 ft 207 kts 306°
2026-05-07 04:50 49.98073 -115.83021 9855 ft 206 kts 277°
2026-05-07 04:50 49.97875 -115.85224 9656 ft 211 kts 250°
2026-05-07 04:50 49.96964 -115.87032 9439 ft 219 kts 220°
2026-05-07 04:51 49.95525 -115.87872 9202 ft 228 kts 188°
2026-05-07 04:51 49.93924 -115.87854 8998 ft 231 kts 180°
2026-05-07 04:51 49.92319 -115.87710 8794 ft 231 kts 180°
2026-05-07 04:51 49.90718 -115.87602 8590 ft 230 kts 180°
2026-05-07 04:52 49.89122 -115.87525 8395 ft 229 kts 181°
2026-05-07 04:52 49.87545 -115.87164 8190 ft 235 kts 161°
2026-05-07 04:52 49.86253 -115.85626 7988 ft 238 kts 127°
2026-05-07 04:52 49.85686 -115.83288 7968 ft 229 kts 92°
2026-05-07 04:53 49.85982 -115.80967 7970 ft 215 kts 60°
2026-05-07 04:53 49.86957 -115.79347 7968 ft 202 kts 25°
2026-05-07 04:53 49.88262 -115.78879 7981 ft 194 kts 358°
2026-05-07 04:53 49.89602 -115.79013 7979 ft 193 kts 353°
2026-05-07 04:54 49.90962 -115.79136 7977 ft 193 kts 356°
2026-05-07 04:54 49.92292 -115.79172 7970 ft 193 kts 357°
2026-05-07 04:54 49.93635 -115.79191 7972 ft 193 kts 357°
2026-05-07 04:54 49.94980 -115.79216 7973 ft 193 kts 357°
2026-05-07 04:55 49.96321 -115.79293 7966 ft 192 kts 346°
2026-05-07 04:55 49.97422 -115.80369 7961 ft 189 kts 307°
2026-05-07 04:55 49.97830 -115.82265 7959 ft 189 kts 271°
2026-05-07 04:55 49.97559 -115.84252 7963 ft 189 kts 257°
2026-05-07 04:56 49.97686 -115.86235 7957 ft 188 kts 296°
2026-05-07 04:56 49.98620 -115.87630 7960 ft 191 kts 334°
2026-05-07 04:56 49.99921 -115.87792 7959 ft 196 kts 12°
2026-05-07 04:56 50.01049 -115.86622 7956 ft 201 kts 50°
2026-05-07 04:57 50.01492 -115.84583 7957 ft 204 kts 88°
2026-05-07 04:57 50.01253 -115.82411 7960 ft 204 kts 105°
2026-05-07 04:57 50.00769 -115.80342 7954 ft 203 kts 114°
2026-05-07 04:57 50.00128 -115.78383 7955 ft 204 kts 117°
2026-05-07 04:58 49.99509 -115.76398 7955 ft 204 kts 117°
2026-05-07 04:58 49.98781 -115.74500 7954 ft 205 kts 127°
2026-05-07 04:58 49.97783 -115.72936 7952 ft 204 kts 145°
2026-05-07 04:58 49.96507 -115.72041 7951 ft 202 kts 170°
2026-05-07 04:59 49.95130 -115.72104 7954 ft 198 kts 198°
2026-05-07 04:59 49.93967 -115.73172 7951 ft 194 kts 225°
2026-05-07 04:59 49.93045 -115.74693 7958 ft 193 kts 230°
2026-05-07 04:59 49.92171 -115.76184 7964 ft 176 kts 229°
2026-05-07 05:00 49.91367 -115.77410 7964 ft 149 kts 226°
2026-05-07 05:00 49.90630 -115.78391 7966 ft 132 kts 214°
2026-05-07 05:00 49.89794 -115.78826 7964 ft 123 kts 190°
2026-05-07 05:00 49.88967 -115.78824 7966 ft 114 kts 183°
2026-05-07 05:01 49.88197 -115.78815 7960 ft 110 kts 184°
2026-05-07 05:01 49.87387 -115.78808 7872 ft 124 kts 183°
2026-05-07 05:01 49.86457 -115.78784 7708 ft 141 kts 184°
2026-05-07 05:01 49.85440 -115.78761 7526 ft 151 kts 184°
2026-05-07 05:02 49.84362 -115.78740 7334 ft 157 kts 182°
2026-05-07 05:02 49.83328 -115.78706 7120 ft 138 kts 183°
2026-05-07 05:02 49.82421 -115.78689 6952 ft 123 kts 183°
2026-05-07 05:02 49.81606 -115.78667 6804 ft 112 kts 183°
2026-05-07 05:03 49.80868 -115.78652 6676 ft 105 kts 185°
2026-05-07 05:03 49.80135 -115.78638 6552 ft 108 kts 183°
2026-05-07 05:03 49.79359 -115.78623 6412 ft 115 kts 184°
2026-05-07 05:03 49.78539 -115.78601 6264 ft 121 kts 182°
2026-05-07 05:04 49.77684 -115.78583 6101 ft 125 kts 182°
2026-05-07 05:04 49.76832 -115.78559 5929 ft 119 kts 182°
2026-05-07 05:04 49.76014 -115.78539 5777 ft 117 kts 182°
2026-05-07 05:04 49.75201 -115.78522 5623 ft 116 kts 181°
2026-05-07 05:05 49.74410 -115.78500 5477 ft 113 kts 182°
2026-05-07 05:05 49.73625 -115.78485 5326 ft 113 kts 181°
2026-05-07 05:05 49.72847 -115.78467 5180 ft 112 kts 181°
2026-05-07 05:05 49.72070 -115.78450 5036 ft 111 kts 181°
2026-05-07 05:06 49.71301 -115.78432 4893 ft 111 kts 181°
2026-05-07 05:06 49.70531 -115.78415 4736 ft 110 kts 181°
2026-05-07 05:06 49.69768 -115.78398 4595 ft 109 kts 181°
2026-05-07 05:06 49.69013 -115.78380 4443 ft 107 kts 182°
2026-05-07 05:07 49.68278 -115.78362 4294 ft 104 kts 181°
2026-05-07 05:07 49.67567 -115.78345 4163 ft 103 kts 183°
2026-05-07 05:07 49.66843 -115.78328 4013 ft 103 kts 182°
2026-05-07 05:07 49.66133 -115.78312 3873 ft 102 kts 184°
2026-05-07 05:08 49.65437 -115.78296 3746 ft 99 kts 185°
2026-05-07 05:08 49.64744 -115.78281 3604 ft 100 kts 187°
2026-05-07 05:08 49.64048 -115.78270 3469 ft 103 kts 186°
2026-05-07 05:08 49.63329 -115.78253 3330 ft 101 kts 188°
2026-05-07 05:09 49.62659 -115.78231 3196 ft 92 kts 189°
2026-05-07 05:09 49.62045 -115.78219 3051 ft 76 kts 185°
2026-05-07 05:09 49.61634 -115.78220 3047 ft 38 kts 178°
2026-05-07 05:09 49.61547 -115.78215 3050 ft 6 kts 179°